When you browse on this site, cookies collect data to enhance your experience and personalize the content and advertising you see.
Visit our Privacy Policy to learn more. By continuing to use the site, you agree to this use of cookies and data.
  • In France
  • List of Countries
  • For 7 days
  • Water Temperature
  • Weather Map
  • Weather Widgets
  • user-avatar
    Login

    Hourly Weather Regina

    Today, 4 April, Saturday

    Time Temperature Precipitation Wind Pressure Humidity
    00:00 -12°C° 0 mm 5 mps 712 mmHg 61%
    01:00 -12°C° 0 mm 5 mps 712 mmHg 61%
    02:00 -12°C° 0 mm 5 mps 711 mmHg 61%
    03:00 -11°C° 0 mm 6 mps 711 mmHg 62%
    04:00 -11°C° 0 mm 6 mps 710 mmHg 63%
    05:00 -12°C° 0 mm 7 mps 710 mmHg 63%
    06:00 -12°C° 0 mm 7 mps 710 mmHg 63%
    07:00 -11°C° 0 mm 7 mps 709 mmHg 64%
    08:00 -10°C° 0 mm 8 mps 709 mmHg 64%
    09:00 -8°C° 0 mm 8 mps 709 mmHg 59%
    10:00 -6°C° 0 mm 8 mps 708 mmHg 55%
    11:00 -5°C° 0 mm 8 mps 708 mmHg 51%
    12:00 -3°C° 0 mm 7 mps 708 mmHg 50%
    13:00 -2°C° 0 mm 7 mps 708 mmHg 50%
    14:00 -1°C° 0 mm 6 mps 707 mmHg 49%
    15:00 -1°C° 0 mm 5 mps 707 mmHg 57%
    16:00 -1°C° 0 mm 4 mps 707 mmHg 65%
    17:00 +1°C° 0 mm 2 mps 707 mmHg 73%
    18:00 -1°C° 0.1 mm 2 mps 707 mmHg 80%
    19:00 0°C° 0.1 mm 1 mps 707 mmHg 88%
    20:00 -1°C° 0.1 mm 1 mps 708 mmHg 95%
    21:00 -1°C° 0 mm 1 mps 708 mmHg 95%
    22:00 -2°C° 0 mm 1 mps 708 mmHg 95%
    23:00 -4°C° 0 mm 2 mps 708 mmHg 95%

    Tomorrow, 5 April, Sunday

    Time Temperature Precipitation Wind Pressure Humidity
    00:00 -4°C° 0 mm 2 mps 708 mmHg 95%
    01:00 -5°C° 0 mm 2 mps 708 mmHg 95%
    02:00 -6°C° 0 mm 3 mps 708 mmHg 94%
    03:00 -6°C° 0 mm 2 mps 708 mmHg 93%
    04:00 -6°C° 0 mm 2 mps 709 mmHg 92%
    05:00 -6°C° 0 mm 2 mps 709 mmHg 90%
    06:00 -6°C° 0 mm 2 mps 709 mmHg 87%
    07:00 -3°C° 0 mm 1 mps 709 mmHg 84%
    08:00 -3°C° 0 mm 1 mps 709 mmHg 80%
    09:00 -4°C° 0 mm 2 mps 709 mmHg 74%
    10:00 -2°C° 0 mm 2 mps 709 mmHg 68%
    11:00 -1°C° 0 mm 3 mps 709 mmHg 62%
    12:00 0°C° 0 mm 3 mps 708 mmHg 59%
    13:00 +1°C° 0 mm 3 mps 708 mmHg 55%
    14:00 +1°C° 0 mm 4 mps 708 mmHg 52%
    15:00 +1°C° 0 mm 4 mps 707 mmHg 56%
    16:00 +1°C° 0 mm 4 mps 707 mmHg 59%
    17:00 0°C° 0 mm 5 mps 707 mmHg 63%
    18:00 -1°C° 0 mm 5 mps 707 mmHg 68%
    19:00 -2°C° 0 mm 6 mps 707 mmHg 73%
    20:00 -3°C° 0 mm 6 mps 707 mmHg 77%
    21:00 -3°C° 0 mm 6 mps 707 mmHg 79%
    22:00 -3°C° 0 mm 6 mps 706 mmHg 80%
    23:00 -3°C° 0 mm 7 mps 706 mmHg 81%

    Day after tomorrow, 6 April, Monday

    Time Temperature Precipitation Wind Pressure Humidity
    00:00 -4°C° 0 mm 7 mps 706 mmHg 83%
    01:00 -4°C° 0 mm 7 mps 705 mmHg 85%
    02:00 -4°C° 0 mm 7 mps 705 mmHg 87%
    03:00 -4°C° 0 mm 7 mps 705 mmHg 88%
    04:00 -4°C° 0 mm 7 mps 704 mmHg 90%
    05:00 -4°C° 0 mm 7 mps 704 mmHg 91%
    06:00 -3°C° 0 mm 7 mps 704 mmHg 90%
    07:00 -3°C° 0 mm 7 mps 704 mmHg 89%
    08:00 -2°C° 0 mm 7 mps 703 mmHg 88%
    09:00 -1°C° 0 mm 7 mps 703 mmHg 84%
    10:00 0°C° 0 mm 8 mps 702 mmHg 80%
    11:00 +1°C° 0 mm 8 mps 701 mmHg 75%
    12:00 +2°C° 0 mm 8 mps 701 mmHg 73%
    13:00 +4°C° 0 mm 8 mps 700 mmHg 71%
    14:00 +5°C° 0 mm 8 mps 700 mmHg 68%
    15:00 +5°C° 0 mm 7 mps 699 mmHg 70%
    16:00 +6°C° 0 mm 5 mps 699 mmHg 72%
    17:00 +6°C° 0 mm 4 mps 699 mmHg 74%
    18:00 +5°C° 0.2 mm 4 mps 699 mmHg 79%
    19:00 +5°C° 0.2 mm 3 mps 699 mmHg 84%
    20:00 +4°C° 0.2 mm 3 mps 699 mmHg 89%
    21:00 +3°C° 0.1 mm 4 mps 699 mmHg 87%
    22:00 0°C° 0.1 mm 4 mps 699 mmHg 86%
    23:00 -1°C° 0.1 mm 5 mps 700 mmHg 85%

    7 April, Tuesday

    Time Temperature Precipitation Wind Pressure Humidity
    00:00 -2°C° 0 mm 4 mps 700 mmHg 87%
    01:00 -3°C° 0 mm 4 mps 700 mmHg 90%
    02:00 -4°C° 0 mm 3 mps 700 mmHg 92%
    03:00 -4°C° 0 mm 3 mps 700 mmHg 90%
    04:00 -4°C° 0 mm 3 mps 701 mmHg 88%
    05:00 -5°C° 0 mm 3 mps 701 mmHg 86%
    06:00 -4°C° 0 mm 3 mps 701 mmHg 79%
    07:00 -2°C° 0 mm 2 mps 701 mmHg 71%
    08:00 +1°C° 0 mm 1 mps 701 mmHg 64%
    09:00 +3°C° 0 mm 1 mps 701 mmHg 56%
    10:00 +4°C° 0 mm 2 mps 700 mmHg 48%
    11:00 +5°C° 0 mm 2 mps 700 mmHg 41%
    12:00 +5°C° 0.2 mm 3 mps 700 mmHg 48%
    13:00 +5°C° 0.2 mm 5 mps 700 mmHg 55%
    14:00 +4°C° 0.2 mm 7 mps 700 mmHg 63%
    15:00 +3°C° 0.9 mm 7 mps 701 mmHg 61%
    16:00 +1°C° 0.9 mm 8 mps 701 mmHg 59%
    17:00 0°C° 0.9 mm 9 mps 702 mmHg 58%
    18:00 -1°C° 0 mm 8 mps 702 mmHg 60%
    19:00 -4°C° 0 mm 8 mps 703 mmHg 63%
    20:00 -4°C° 0 mm 7 mps 704 mmHg 66%
    21:00 -5°C° 0.2 mm 8 mps 705 mmHg 70%
    22:00 -5°C° 0.2 mm 9 mps 705 mmHg 74%
    23:00 -4°C° 0.2 mm 10 mps 706 mmHg 78%

    8 April, Wednesday

    Time Temperature Precipitation Wind Pressure Humidity
    00:00 -5°C° 0 mm 9 mps 707 mmHg 78%
    01:00 -5°C° 0 mm 9 mps 707 mmHg 78%
    02:00 -6°C° 0 mm 8 mps 707 mmHg 78%
    03:00 -6°C° 0 mm 8 mps 708 mmHg 80%
    04:00 -6°C° 0 mm 8 mps 709 mmHg 82%
    05:00 -7°C° 0 mm 7 mps 709 mmHg 84%
    06:00 -7°C° 0.1 mm 7 mps 710 mmHg 84%
    07:00 -6°C° 0.1 mm 8 mps 710 mmHg 85%
    08:00 -6°C° 0.1 mm 8 mps 711 mmHg 85%
    09:00 -5°C° 0.1 mm 8 mps 711 mmHg 74%
    10:00 -4°C° 0.1 mm 9 mps 711 mmHg 64%
    11:00 -3°C° 0.1 mm 10 mps 712 mmHg 53%
    12:00 -3°C° 0 mm 10 mps 712 mmHg 51%
    13:00 -3°C° 0 mm 10 mps 712 mmHg 49%
    14:00 -3°C° 0 mm 10 mps 712 mmHg 47%
    15:00 -3°C° 0 mm 10 mps 712 mmHg 50%
    16:00 -4°C° 0 mm 10 mps 712 mmHg 52%
    17:00 -4°C° 0 mm 9 mps 712 mmHg 55%
    18:00 -5°C° 0 mm 9 mps 712 mmHg 61%
    19:00 -6°C° 0 mm 8 mps 712 mmHg 66%
    20:00 -7°C° 0 mm 8 mps 712 mmHg 72%
    21:00 -7°C° 0.1 mm 8 mps 713 mmHg 73%
    22:00 -8°C° 0.1 mm 8 mps 713 mmHg 73%
    23:00 -8°C° 0.1 mm 8 mps 713 mmHg 74%

    9 April, Thursday

    Time Temperature Precipitation Wind Pressure Humidity
    00:00 -8°C° 0 mm 7 mps 713 mmHg 74%
    01:00 -9°C° 0 mm 7 mps 713 mmHg 74%
    02:00 -9°C° 0 mm 7 mps 713 mmHg 74%
    03:00 -9°C° 0 mm 6 mps 713 mmHg 74%
    04:00 -10°C° 0 mm 6 mps 714 mmHg 75%
    05:00 -10°C° 0 mm 6 mps 714 mmHg 76%
    06:00 -9°C° 0 mm 6 mps 714 mmHg 72%
    07:00 -9°C° 0 mm 6 mps 714 mmHg 68%
    08:00 -9°C° 0 mm 6 mps 714 mmHg 64%
    09:00 -6°C° 0 mm 6 mps 714 mmHg 59%
    10:00 -5°C° 0 mm 6 mps 714 mmHg 53%
    11:00 -4°C° 0 mm 6 mps 714 mmHg 48%
    12:00 -3°C° 0 mm 6 mps 714 mmHg 45%
    13:00 -2°C° 0 mm 5 mps 713 mmHg 43%
    14:00 -1°C° 0 mm 5 mps 713 mmHg 40%
    15:00 -1°C° 0 mm 4 mps 712 mmHg 40%
    16:00 -1°C° 0 mm 4 mps 712 mmHg 40%
    17:00 0°C° 0 mm 3 mps 711 mmHg 39%
    18:00 -1°C° 0 mm 2 mps 711 mmHg 43%
    19:00 0°C° 0 mm 1 mps 711 mmHg 47%
    20:00 -2°C° 0 mm 0 mps 710 mmHg 51%
    21:00 -1°C° 0 mm 1 mps 710 mmHg 50%
    22:00 -1°C° 0 mm 1 mps 709 mmHg 49%
    23:00 -1°C° 0 mm 1 mps 709 mmHg 48%
    Show more